SHH25Q MDSD-SMJP

Flight info

Callsign SHH25Q
Flight time 2h 51m
Altitude 35000
Route MELLA2L MELLA DCT ETEEE L452 ANADA UG449 GEKOS DCT KETIL DCT VUKSA
Aircraft E190/M-SDE3GILORVW/S

Departure

Time 2026-04-23 05:19
Airport Las Américas International Airport (MDSD)

Arrival

Time 2026-04-23 08:10
Airport Johan Adolf Pengel International Airport (SMJP)
Time Latitude Longitude Altitude Speed Heading
2026-04-23 05:09 18.43197 -69.67548 66 ft 0 kts 245°
2026-04-23 05:14 18.43196 -69.67548 66 ft 0 kts 240°
2026-04-23 05:14 18.43190 -69.67554 60 ft 3 kts 218°
2026-04-23 05:14 18.43167 -69.67540 66 ft 7 kts 127°
2026-04-23 05:14 18.43122 -69.67487 62 ft 13 kts 138°
2026-04-23 05:15 18.43029 -69.67425 58 ft 18 kts 146°
2026-04-23 05:15 18.42968 -69.67310 55 ft 21 kts 98°
2026-04-23 05:15 18.42953 -69.67163 65 ft 16 kts 96°
2026-04-23 05:15 18.42899 -69.67069 69 ft 17 kts 149°
2026-04-23 05:16 18.42778 -69.67017 68 ft 22 kts 159°
2026-04-23 05:16 18.42622 -69.66962 63 ft 26 kts 161°
2026-04-23 05:16 18.42440 -69.66895 65 ft 29 kts 161°
2026-04-23 05:16 18.42243 -69.66823 64 ft 30 kts 161°
2026-04-23 05:17 18.42046 -69.66750 64 ft 30 kts 161°
2026-04-23 05:17 18.41856 -69.66680 65 ft 28 kts 161°
2026-04-23 05:17 18.41679 -69.66615 69 ft 25 kts 161°
2026-04-23 05:17 18.41563 -69.66534 66 ft 20 kts 118°
2026-04-23 05:18 18.41566 -69.66410 66 ft 15 kts 39°
2026-04-23 05:18 18.41671 -69.66415 65 ft 25 kts 340°
2026-04-23 05:18 18.42085 -69.66569 68 ft 100 kts 340°
2026-04-23 05:18 18.42967 -69.66891 67 ft 166 kts 341°
2026-04-23 05:19 18.44219 -69.67357 357 ft 209 kts 339°
2026-04-23 05:19 18.45650 -69.67907 1316 ft 225 kts 342°
2026-04-23 05:19 18.47160 -69.68471 2406 ft 233 kts 341°
2026-04-23 05:19 18.48687 -69.69060 3447 ft 243 kts 342°
2026-04-23 05:20 18.50387 -69.69709 3795 ft 276 kts 342°
2026-04-23 05:20 18.52181 -69.70412 4956 ft 274 kts 343°
2026-04-23 05:20 18.54032 -69.70666 6017 ft 274 kts
2026-04-23 05:20 18.55785 -69.69928 6938 ft 276 kts 38°
2026-04-23 05:21 18.57034 -69.68397 7883 ft 280 kts 60°
2026-04-23 05:21 18.57625 -69.66417 8725 ft 290 kts 84°
2026-04-23 05:21 18.57527 -69.64277 9647 ft 297 kts 96°
2026-04-23 05:21 18.57189 -69.62088 10427 ft 310 kts 98°
2026-04-23 05:22 18.56822 -69.59756 10920 ft 325 kts 99°
2026-04-23 05:22 18.56413 -69.57372 11603 ft 340 kts 99°
2026-04-23 05:22 18.55969 -69.54883 12356 ft 345 kts 101°
2026-04-23 05:22 18.55467 -69.52364 13231 ft 352 kts 102°
2026-04-23 05:23 18.54916 -69.49849 14035 ft 358 kts 104°
2026-04-23 05:23 18.54293 -69.47279 14828 ft 364 kts 103°
2026-04-23 05:23 18.53729 -69.44657 15634 ft 370 kts 102°
2026-04-23 05:23 18.53158 -69.41985 16418 ft 377 kts 103°
2026-04-23 05:24 18.52575 -69.39272 17200 ft 383 kts 103°
2026-04-23 05:24 18.51978 -69.36511 17936 ft 389 kts 103°
2026-04-23 05:24 18.51370 -69.33717 18578 ft 394 kts 103°
2026-04-23 05:24 18.50752 -69.30876 19192 ft 400 kts 103°
2026-04-23 05:25 18.50124 -69.28003 19782 ft 405 kts 103°
2026-04-23 05:25 18.49497 -69.25129 20342 ft 410 kts 103°
2026-04-23 05:25 18.48891 -69.22356 20745 ft 417 kts 103°
2026-04-23 05:25 18.48236 -69.19370 21332 ft 420 kts 103°
2026-04-23 05:26 18.47577 -69.16352 21865 ft 425 kts 103°
2026-04-23 05:26 18.46907 -69.13295 22396 ft 430 kts 104°
2026-04-23 05:26 18.46230 -69.10198 22918 ft 435 kts 104°
2026-04-23 05:26 18.45545 -69.07075 23419 ft 440 kts 104°
2026-04-23 05:27 18.44850 -69.03913 23873 ft 444 kts 104°
2026-04-23 05:27 18.44151 -69.00732 24305 ft 447 kts 104°
2026-04-23 05:27 18.43455 -68.97572 24708 ft 451 kts 104°
2026-04-23 05:27 18.42745 -68.94344 25074 ft 454 kts 104°
2026-04-23 05:28 18.42008 -68.91072 25165 ft 466 kts 105°
2026-04-23 05:28 18.41199 -68.87720 25319 ft 476 kts 105°
2026-04-23 05:28 18.40376 -68.84332 25721 ft 478 kts 105°
2026-04-23 05:28 18.39558 -68.80925 26117 ft 481 kts 105°
2026-04-23 05:29 18.38736 -68.77499 26492 ft 483 kts 105°
2026-04-23 05:29 18.37913 -68.74057 26851 ft 486 kts 105°
2026-04-23 05:29 18.37083 -68.70588 27206 ft 489 kts 105°
2026-04-23 05:29 18.36261 -68.67152 27533 ft 492 kts 105°
2026-04-23 05:30 18.35419 -68.63637 27865 ft 495 kts 105°
2026-04-23 05:30 18.34575 -68.60120 28175 ft 498 kts 106°
2026-04-23 05:30 18.33723 -68.56571 28488 ft 500 kts 106°
2026-04-23 05:30 18.32869 -68.53016 28787 ft 503 kts 106°
2026-04-23 05:31 18.32009 -68.49438 29080 ft 505 kts 106°
2026-04-23 05:31 18.31149 -68.45862 29488 ft 504 kts 106°
2026-04-23 05:31 18.30289 -68.42288 29869 ft 503 kts 106°
2026-04-23 05:31 18.29428 -68.38718 30192 ft 503 kts 106°
2026-04-23 05:32 18.28566 -68.35144 30501 ft 503 kts 106°
2026-04-23 05:32 18.27706 -68.31583 30826 ft 502 kts 106°
2026-04-23 05:32 18.26845 -68.28022 31125 ft 502 kts 107°
2026-04-23 05:32 18.25985 -68.24462 31440 ft 501 kts 107°
2026-04-23 05:33 18.25127 -68.20919 31772 ft 500 kts 107°
2026-04-23 05:33 18.24266 -68.17365 32093 ft 500 kts 107°
2026-04-23 05:33 18.23408 -68.13829 32413 ft 500 kts 107°
2026-04-23 05:33 18.22547 -68.10280 32739 ft 499 kts 107°
2026-04-23 05:34 18.21688 -68.06743 33071 ft 498 kts 107°
2026-04-23 05:34 18.20840 -68.03254 33383 ft 498 kts 107°
2026-04-23 05:34 18.19827 -67.99786 33645 ft 493 kts 118°
2026-04-23 05:34 18.18172 -67.96659 33919 ft 486 kts 128°
2026-04-23 05:35 18.16295 -67.93716 34214 ft 483 kts 130°
2026-04-23 05:35 18.14416 -67.90839 34457 ft 482 kts 130°
2026-04-23 05:35 18.12528 -67.87906 34695 ft 482 kts 129°
2026-04-23 05:35 18.10665 -67.84954 35024 ft 479 kts 129°
2026-04-23 05:36 18.08849 -67.82059 35117 ft 481 kts 129°
2026-04-23 05:36 18.04871 -67.76482 35080 ft 470 kts 143°
2026-04-23 05:37 18.00761 -67.72774 34989 ft 467 kts 147°
2026-04-23 05:37 17.95769 -67.68435 34982 ft 466 kts 147°
2026-04-23 05:38 17.90791 -67.64060 35005 ft 467 kts 147°
2026-04-23 05:38 17.85816 -67.59681 35000 ft 466 kts 147°
2026-04-23 05:39 17.80843 -67.55308 34997 ft 466 kts 147°
2026-04-23 05:39 17.75863 -67.50932 34984 ft 467 kts 146°
2026-04-23 05:40 17.70894 -67.46567 34996 ft 466 kts 147°
2026-04-23 05:40 17.65926 -67.42209 34998 ft 466 kts 147°
2026-04-23 05:41 17.60955 -67.37850 34991 ft 466 kts 147°
2026-04-23 05:41 17.56014 -67.33522 34990 ft 466 kts 147°
2026-04-23 05:42 17.51034 -67.29161 34991 ft 466 kts 147°
2026-04-23 05:42 17.46057 -67.24807 34992 ft 466 kts 147°
2026-04-23 05:43 17.41077 -67.20454 34994 ft 466 kts 147°
2026-04-23 05:43 17.36105 -67.16109 34991 ft 465 kts 146°
2026-04-23 05:44 17.31136 -67.11772 34992 ft 465 kts 146°
2026-04-23 05:44 17.26170 -67.07439 34991 ft 465 kts 146°
2026-04-23 05:45 17.21194 -67.03103 34992 ft 465 kts 146°
2026-04-23 05:45 17.16223 -66.98773 34987 ft 465 kts 146°
2026-04-23 05:46 17.11277 -66.94467 34991 ft 465 kts 146°
2026-04-23 05:46 17.06310 -66.90147 34990 ft 465 kts 146°
2026-04-23 05:47 17.01322 -66.85811 34998 ft 465 kts 146°
2026-04-23 05:47 16.96367 -66.81507 34990 ft 465 kts 146°
2026-04-23 05:48 16.91381 -66.77179 34988 ft 465 kts 146°
2026-04-23 05:48 16.86417 -66.72873 34989 ft 465 kts 146°
2026-04-23 05:49 16.81448 -66.68566 34988 ft 465 kts 146°
2026-04-23 05:49 16.76490 -66.64272 34987 ft 465 kts 146°
2026-04-23 05:50 16.71493 -66.59947 34986 ft 465 kts 146°
2026-04-23 05:50 16.66513 -66.55640 34987 ft 465 kts 146°
2026-04-23 05:51 16.61561 -66.51360 34983 ft 465 kts 146°
2026-04-23 05:51 16.56581 -66.47058 34984 ft 465 kts 146°
2026-04-23 05:52 16.51599 -66.42758 34985 ft 465 kts 146°
2026-04-23 05:52 16.46616 -66.38460 34981 ft 465 kts 146°
2026-04-23 05:53 16.41635 -66.34166 34980 ft 465 kts 146°
2026-04-23 05:53 16.36642 -66.29865 34981 ft 465 kts 146°
2026-04-23 05:54 16.31661 -66.25578 34973 ft 464 kts 146°
2026-04-23 05:54 16.26679 -66.21293 34977 ft 464 kts 146°
2026-04-23 05:55 16.21705 -66.17016 34977 ft 464 kts 146°
2026-04-23 05:55 16.16758 -66.12766 34976 ft 464 kts 146°
2026-04-23 05:56 16.11767 -66.08481 34976 ft 464 kts 146°
2026-04-23 05:56 16.06806 -66.04223 34976 ft 464 kts 146°
2026-04-23 05:57 16.01805 -65.99937 34973 ft 464 kts 146°
2026-04-23 05:57 15.96837 -65.95680 34968 ft 464 kts 146°
2026-04-23 05:58 15.91885 -65.91440 34975 ft 463 kts 146°
2026-04-23 05:58 15.86893 -65.87170 34973 ft 463 kts 146°
2026-04-23 05:59 15.81932 -65.82927 34970 ft 463 kts 146°
2026-04-23 05:59 15.76945 -65.78666 34970 ft 463 kts 146°
2026-04-23 06:00 15.71982 -65.74429 34969 ft 463 kts 146°
2026-04-23 06:00 15.67007 -65.70183 34970 ft 463 kts 146°
2026-04-23 06:01 15.62042 -65.65946 34973 ft 463 kts 146°
2026-04-23 06:01 15.57081 -65.61717 34968 ft 462 kts 145°
2026-04-23 06:02 15.52125 -65.57498 34971 ft 461 kts 145°
2026-04-23 06:02 15.47174 -65.53285 34971 ft 462 kts 145°
2026-04-23 06:03 15.42193 -65.49048 34967 ft 461 kts 145°
2026-04-23 06:03 15.37242 -65.44838 34968 ft 461 kts 145°
2026-04-23 06:04 15.32268 -65.40610 34965 ft 462 kts 145°
2026-04-23 06:04 15.27311 -65.36403 34965 ft 462 kts 145°
2026-04-23 06:05 15.22359 -65.32200 34963 ft 460 kts 145°
2026-04-23 06:05 15.17404 -65.28000 34958 ft 457 kts 145°
2026-04-23 06:06 15.12501 -65.23844 34964 ft 458 kts 145°
2026-04-23 06:06 15.07583 -65.19680 34962 ft 458 kts 145°
2026-04-23 06:07 15.02634 -65.15489 34960 ft 458 kts 145°
2026-04-23 06:07 14.97730 -65.11339 34960 ft 458 kts 145°
2026-04-23 06:08 14.92817 -65.07182 34959 ft 458 kts 145°
2026-04-23 06:08 14.87868 -65.03000 34967 ft 456 kts 145°
2026-04-23 06:09 14.82979 -64.98874 34956 ft 455 kts 145°
2026-04-23 06:09 14.78091 -64.94748 34950 ft 455 kts 146°
2026-04-23 06:10 14.73193 -64.90620 34947 ft 455 kts 146°
2026-04-23 06:10 14.68264 -64.86464 34956 ft 455 kts 146°
2026-04-23 06:11 14.63371 -64.82345 34959 ft 455 kts 146°
2026-04-23 06:11 14.58475 -64.78220 34954 ft 455 kts 146°
2026-04-23 06:12 14.53565 -64.74094 34954 ft 455 kts 146°
2026-04-23 06:12 14.46217 -64.67912 34956 ft 454 kts 145°
2026-04-23 06:13 14.41321 -64.63797 34958 ft 454 kts 145°
2026-04-23 06:13 14.36400 -64.59666 34947 ft 454 kts 145°
2026-04-23 06:14 14.31511 -64.55565 34949 ft 454 kts 145°
2026-04-23 06:14 14.26631 -64.51471 34955 ft 454 kts 145°
2026-04-23 06:15 14.21729 -64.47362 34951 ft 454 kts 145°
2026-04-23 06:15 14.16828 -64.43254 34951 ft 453 kts 145°
2026-04-23 06:16 14.11967 -64.39182 34948 ft 452 kts 145°
2026-04-23 06:16 14.07094 -64.35108 34954 ft 451 kts 145°
2026-04-23 06:17 14.02211 -64.31022 34949 ft 451 kts 145°
2026-04-23 06:17 13.97348 -64.26960 34947 ft 451 kts 145°
2026-04-23 06:18 13.92486 -64.22901 34945 ft 451 kts 145°
2026-04-23 06:18 13.87602 -64.18818 34944 ft 451 kts 145°
2026-04-23 06:19 13.82749 -64.14771 34943 ft 451 kts 145°
2026-04-23 06:19 13.77900 -64.10726 34949 ft 450 kts 145°
2026-04-23 06:20 13.73019 -64.06661 34951 ft 450 kts 145°
2026-04-23 06:20 13.68163 -64.02615 34946 ft 450 kts 144°
2026-04-23 06:21 13.63308 -63.98571 34950 ft 451 kts 144°
2026-04-23 06:21 13.58440 -63.94515 34940 ft 450 kts 144°
2026-04-23 06:22 13.53591 -63.90480 34941 ft 450 kts 144°
2026-04-23 06:22 13.48707 -63.86424 34941 ft 450 kts 145°
2026-04-23 06:23 13.43838 -63.82377 34935 ft 450 kts 144°
2026-04-23 06:23 13.38985 -63.78340 34942 ft 450 kts 144°
2026-04-23 06:24 13.34139 -63.74327 34941 ft 450 kts 144°
2026-04-23 06:24 13.29250 -63.70269 34939 ft 450 kts 144°
2026-04-23 06:25 13.24394 -63.66246 34939 ft 450 kts 144°
2026-04-23 06:25 13.19499 -63.62184 34939 ft 450 kts 144°
2026-04-23 06:26 13.14641 -63.58162 34943 ft 450 kts 144°
2026-04-23 06:26 13.09780 -63.54140 34936 ft 450 kts 144°
2026-04-23 06:27 13.04890 -63.50097 34936 ft 450 kts 144°
2026-04-23 06:27 13.00028 -63.46075 34929 ft 450 kts 144°
2026-04-23 06:28 12.95146 -63.42026 34943 ft 450 kts 144°
2026-04-23 06:28 12.90273 -63.38004 34940 ft 450 kts 144°
2026-04-23 06:29 12.85397 -63.33986 34933 ft 450 kts 144°
2026-04-23 06:29 12.80532 -63.29969 34937 ft 450 kts 144°
2026-04-23 06:30 12.75667 -63.25951 34933 ft 450 kts 144°
2026-04-23 06:30 12.70798 -63.21946 34927 ft 444 kts 144°
2026-04-23 06:31 12.65992 -63.17994 34937 ft 445 kts 144°
2026-04-23 06:31 12.61159 -63.14000 34931 ft 445 kts 144°
2026-04-23 06:32 12.56367 -63.10062 34930 ft 439 kts 144°
2026-04-23 06:32 12.51621 -63.06154 34933 ft 440 kts 144°
2026-04-23 06:33 12.46856 -63.02243 34933 ft 440 kts 144°
2026-04-23 06:33 12.42053 -62.98294 34927 ft 440 kts 144°
2026-04-23 06:34 12.37298 -62.94385 34930 ft 437 kts 145°
2026-04-23 06:34 12.32584 -62.90510 34927 ft 436 kts 144°
2026-04-23 06:35 12.27866 -62.86635 34927 ft 437 kts 144°
2026-04-23 06:35 12.23125 -62.82756 34925 ft 437 kts 144°
2026-04-23 06:36 12.18409 -62.78881 34926 ft 434 kts 145°
2026-04-23 06:36 12.13706 -62.75045 34926 ft 435 kts 145°
2026-04-23 06:37 12.08971 -62.71159 34928 ft 435 kts 145°
2026-04-23 06:37 12.04253 -62.67317 34926 ft 434 kts 145°
2026-04-23 06:38 11.99587 -62.63497 34921 ft 428 kts 144°
2026-04-23 06:38 11.94950 -62.59705 34927 ft 429 kts 144°
2026-04-23 06:39 11.91071 -62.56522 34925 ft 429 kts 144°
2026-04-23 06:39 11.86403 -62.52701 34923 ft 429 kts 144°
2026-04-23 06:40 11.81761 -62.48916 34920 ft 427 kts 146°
2026-04-23 06:40 11.77138 -62.45143 34920 ft 427 kts 145°
2026-04-23 06:41 11.72484 -62.41334 34922 ft 427 kts 145°
2026-04-23 06:41 11.67861 -62.37562 34921 ft 427 kts 146°
2026-04-23 06:42 11.63257 -62.33803 34921 ft 425 kts 146°
2026-04-23 06:42 11.58618 -62.30021 34919 ft 425 kts 145°
2026-04-23 06:43 11.54019 -62.26271 34921 ft 425 kts 146°
2026-04-23 06:43 11.49414 -62.22524 34922 ft 425 kts 145°
2026-04-23 06:44 11.44792 -62.18752 34918 ft 426 kts 145°
2026-04-23 06:44 11.40145 -62.14958 34918 ft 426 kts 145°
2026-04-23 06:45 11.35526 -62.11217 34919 ft 426 kts 145°
2026-04-23 06:45 11.30906 -62.07465 34917 ft 425 kts 145°
2026-04-23 06:46 11.26310 -62.03710 34919 ft 424 kts 145°
2026-04-23 06:46 11.21679 -61.99959 34918 ft 424 kts 145°
2026-04-23 06:47 11.17084 -61.96233 34916 ft 424 kts 145°
2026-04-23 06:47 11.12449 -61.92475 34917 ft 424 kts 145°
2026-04-23 06:48 11.07827 -61.88714 34920 ft 427 kts 145°
2026-04-23 06:48 11.03204 -61.84969 34909 ft 426 kts 145°
2026-04-23 06:49 10.98577 -61.81208 34913 ft 427 kts 145°
2026-04-23 06:49 10.93931 -61.77440 34912 ft 425 kts 144°
2026-04-23 06:50 10.89329 -61.73708 34908 ft 425 kts 144°
2026-04-23 06:50 10.84670 -61.69952 34906 ft 425 kts 144°
2026-04-23 06:51 10.80054 -61.66221 34906 ft 425 kts 144°
2026-04-23 06:51 10.75408 -61.62467 34904 ft 425 kts 144°
2026-04-23 06:52 10.70801 -61.58729 34906 ft 426 kts 144°
2026-04-23 06:52 10.66173 -61.54979 34907 ft 425 kts 144°
2026-04-23 06:53 10.61555 -61.51252 34909 ft 425 kts 144°
2026-04-23 06:53 10.56932 -61.47531 34910 ft 424 kts 144°
2026-04-23 06:54 10.52332 -61.43799 34901 ft 424 kts 144°
2026-04-23 06:54 10.47706 -61.40055 34900 ft 424 kts 143°
2026-04-23 06:55 10.43701 -61.35625 34911 ft 429 kts 132°
2026-04-23 06:55 10.39966 -61.30914 34899 ft 429 kts 131°
2026-04-23 06:56 10.36249 -61.26198 34902 ft 429 kts 132°
2026-04-23 06:56 10.32518 -61.21471 34902 ft 429 kts 132°
2026-04-23 06:57 10.28779 -61.16738 34903 ft 429 kts 132°
2026-04-23 06:57 10.25049 -61.12020 34905 ft 428 kts 132°
2026-04-23 06:58 10.21321 -61.07306 34909 ft 428 kts 132°
2026-04-23 06:58 10.17590 -61.02591 34908 ft 429 kts 131°
2026-04-23 06:59 10.13862 -60.97877 34912 ft 428 kts 131°
2026-04-23 06:59 10.10125 -60.93158 34908 ft 428 kts 131°
2026-04-23 07:00 10.06415 -60.88474 34909 ft 429 kts 131°
2026-04-23 07:00 10.02672 -60.83751 34910 ft 429 kts 131°
2026-04-23 07:01 9.98934 -60.79035 34909 ft 428 kts 131°
2026-04-23 07:01 9.95196 -60.74323 34915 ft 429 kts 131°
2026-04-23 07:02 9.91454 -60.69606 34913 ft 429 kts 131°
2026-04-23 07:02 9.87709 -60.64887 34911 ft 428 kts 131°
2026-04-23 07:03 9.84003 -60.60220 34911 ft 428 kts 131°
2026-04-23 07:03 9.80261 -60.55510 34912 ft 428 kts 131°
2026-04-23 07:04 9.76527 -60.50810 34912 ft 428 kts 131°
2026-04-23 07:04 9.72785 -60.46104 34909 ft 428 kts 131°
2026-04-23 07:05 9.69070 -60.41432 34909 ft 429 kts 131°
2026-04-23 07:05 9.65327 -60.36727 34911 ft 428 kts 131°
2026-04-23 07:06 9.61581 -60.32020 34911 ft 428 kts 131°
2026-04-23 07:06 9.57834 -60.27315 34911 ft 428 kts 131°
2026-04-23 07:07 9.54112 -60.22642 34909 ft 428 kts 131°
2026-04-23 07:07 9.50368 -60.17943 34908 ft 428 kts 131°
2026-04-23 07:08 9.46613 -60.13233 34909 ft 430 kts 131°
2026-04-23 07:08 9.42858 -60.08523 34905 ft 429 kts 131°
2026-04-23 07:09 9.39101 -60.03814 34906 ft 429 kts 131°
2026-04-23 07:09 9.35340 -59.99102 34909 ft 429 kts 131°
2026-04-23 07:10 9.31583 -59.94396 34911 ft 430 kts 131°
2026-04-23 07:10 9.27848 -59.89719 34906 ft 430 kts 131°
2026-04-23 07:11 9.24089 -59.85015 34909 ft 430 kts 131°
2026-04-23 07:12 9.18447 -59.77957 34905 ft 430 kts 131°
2026-04-23 07:12 9.14688 -59.73256 34908 ft 428 kts 131°
2026-04-23 07:13 9.10935 -59.68565 34903 ft 428 kts 131°
2026-04-23 07:13 9.07212 -59.63913 34902 ft 428 kts 131°
2026-04-23 07:14 9.03460 -59.59228 34907 ft 428 kts 131°
2026-04-23 07:14 8.99711 -59.54545 34906 ft 428 kts 131°
2026-04-23 07:15 8.95963 -59.49868 34905 ft 428 kts 131°
2026-04-23 07:15 8.92237 -59.45219 34906 ft 428 kts 131°
2026-04-23 07:16 8.88490 -59.40543 34901 ft 428 kts 131°
2026-04-23 07:16 8.84737 -59.35859 34900 ft 428 kts 131°
2026-04-23 07:17 8.80985 -59.31178 34905 ft 428 kts 131°
2026-04-23 07:17 8.77262 -59.26534 34903 ft 427 kts 131°
2026-04-23 07:18 8.73517 -59.21867 34909 ft 427 kts 131°
2026-04-23 07:18 8.69760 -59.17183 34906 ft 427 kts 131°
2026-04-23 07:19 8.66021 -59.12524 34905 ft 427 kts 131°
2026-04-23 07:19 8.62291 -59.07878 34903 ft 427 kts 131°
2026-04-23 07:20 8.58541 -59.03211 34905 ft 427 kts 131°
2026-04-23 07:20 8.54771 -58.98519 34904 ft 430 kts 131°
2026-04-23 07:21 8.51016 -58.93848 34905 ft 430 kts 131°
2026-04-23 07:21 8.47241 -58.89157 34903 ft 430 kts 131°
2026-04-23 07:22 8.43466 -58.84471 34901 ft 430 kts 131°
2026-04-23 07:22 8.39674 -58.79765 34906 ft 432 kts 131°
2026-04-23 07:23 8.35879 -58.75057 34906 ft 432 kts 131°
2026-04-23 07:23 8.32083 -58.70350 34906 ft 432 kts 131°
2026-04-23 07:24 8.28325 -58.65689 34901 ft 432 kts 131°
2026-04-23 07:24 8.24521 -58.60975 34902 ft 432 kts 131°
2026-04-23 07:25 8.20707 -58.56250 34904 ft 432 kts 131°
2026-04-23 07:25 8.16934 -58.51577 34906 ft 432 kts 131°
2026-04-23 07:26 8.13126 -58.46862 34901 ft 433 kts 131°
2026-04-23 07:26 8.09326 -58.42160 34907 ft 434 kts 131°
2026-04-23 07:27 8.05510 -58.37438 34905 ft 432 kts 131°
2026-04-23 07:27 8.01707 -58.32733 34902 ft 432 kts 131°
2026-04-23 07:28 7.97923 -58.28053 34910 ft 432 kts 131°
2026-04-23 07:28 7.94111 -58.23341 34907 ft 432 kts 131°
2026-04-23 07:29 7.90315 -58.18651 34899 ft 432 kts 130°
2026-04-23 07:29 7.86511 -58.13952 34904 ft 433 kts 130°
2026-04-23 07:30 7.82703 -58.09249 34900 ft 432 kts 131°
2026-04-23 07:30 7.78886 -58.04558 34902 ft 432 kts 131°
2026-04-23 07:31 7.75052 -57.99880 34908 ft 432 kts 131°
2026-04-23 07:31 7.71224 -57.95202 34905 ft 430 kts 131°
2026-04-23 07:32 7.67442 -57.90585 34905 ft 430 kts 130°
2026-04-23 07:32 7.63642 -57.85911 34908 ft 431 kts 130°
2026-04-23 07:33 7.59861 -57.81216 34905 ft 431 kts 130°
2026-04-23 07:33 7.56076 -57.76528 34905 ft 431 kts 130°
2026-04-23 07:34 7.52930 -57.72633 34910 ft 431 kts 130°
2026-04-23 07:34 7.49148 -57.67954 34909 ft 431 kts 130°
2026-04-23 07:35 7.44737 -57.62501 34909 ft 433 kts 130°
2026-04-23 07:35 7.41549 -57.58558 34899 ft 433 kts 130°
2026-04-23 07:36 7.37750 -57.53863 34898 ft 432 kts 130°
2026-04-23 07:36 7.33970 -57.49192 34899 ft 433 kts 130°
2026-04-23 07:37 7.30151 -57.44500 34900 ft 433 kts 130°
2026-04-23 07:37 7.26335 -57.39812 34904 ft 433 kts 130°
2026-04-23 07:38 7.22509 -57.35112 34899 ft 434 kts 130°
2026-04-23 07:38 7.18686 -57.30415 34899 ft 434 kts 130°
2026-04-23 07:39 7.14861 -57.25717 34905 ft 434 kts 130°
2026-04-23 07:39 7.11033 -57.21017 34905 ft 434 kts 130°
2026-04-23 07:40 7.07208 -57.16322 34902 ft 434 kts 130°
2026-04-23 07:40 7.03383 -57.11628 34900 ft 433 kts 130°
2026-04-23 07:41 6.99559 -57.06936 34905 ft 433 kts 130°
2026-04-23 07:41 6.95766 -57.02284 34903 ft 433 kts 130°
2026-04-23 07:42 6.91946 -56.97586 34905 ft 434 kts 130°
2026-04-23 07:42 6.88174 -56.92860 34904 ft 433 kts 130°
2026-04-23 07:43 6.84369 -56.88148 34907 ft 433 kts 130°
2026-04-23 07:43 6.80574 -56.83441 34902 ft 432 kts 130°
2026-04-23 07:44 6.76791 -56.78745 34900 ft 432 kts 130°
2026-04-23 07:44 6.73006 -56.74046 34900 ft 432 kts 130°
2026-04-23 07:45 6.69215 -56.69343 34900 ft 432 kts 130°
2026-04-23 07:45 6.65424 -56.64642 34900 ft 432 kts 130°
2026-04-23 07:46 6.61663 -56.59979 34906 ft 432 kts 130°
2026-04-23 07:46 6.57880 -56.55289 34899 ft 431 kts 130°
2026-04-23 07:47 6.54105 -56.50609 34902 ft 431 kts 130°
2026-04-23 07:47 6.50323 -56.45923 34904 ft 431 kts 130°
2026-04-23 07:48 6.46544 -56.41241 34907 ft 431 kts 130°
2026-04-23 07:48 6.42765 -56.36561 34905 ft 431 kts 130°
2026-04-23 07:48 6.40884 -56.34233 34560 ft 436 kts 130°
2026-04-23 07:49 6.38981 -56.31876 34344 ft 432 kts 130°
2026-04-23 07:49 6.37075 -56.29517 33680 ft 438 kts 130°
2026-04-23 07:49 6.35148 -56.27132 33133 ft 436 kts 130°
2026-04-23 07:49 6.33231 -56.24759 32503 ft 437 kts 130°
2026-04-23 07:50 6.31333 -56.22411 31946 ft 438 kts 130°
2026-04-23 07:50 6.29405 -56.20026 31362 ft 439 kts 130°
2026-04-23 07:50 6.27476 -56.17638 30758 ft 440 kts 130°
2026-04-23 07:50 6.25541 -56.15245 30324 ft 439 kts 130°
2026-04-23 07:51 6.23597 -56.12841 29625 ft 444 kts 130°
2026-04-23 07:51 6.21674 -56.10464 29110 ft 444 kts 130°
2026-04-23 07:51 6.19711 -56.08036 28495 ft 447 kts 130°
2026-04-23 07:51 6.17742 -56.05602 27891 ft 445 kts 130°
2026-04-23 07:52 6.15800 -56.03201 27310 ft 441 kts 130°
2026-04-23 07:52 6.13897 -56.00847 26735 ft 437 kts 130°
2026-04-23 07:52 6.11987 -55.98488 26156 ft 433 kts 129°
2026-04-23 07:52 6.10088 -55.96142 25584 ft 430 kts 130°
2026-04-23 07:53 6.08200 -55.93809 25013 ft 427 kts 130°
2026-04-23 07:53 6.06326 -55.91494 24445 ft 426 kts 129°
2026-04-23 07:53 6.04482 -55.89218 23889 ft 425 kts 129°
2026-04-23 07:53 6.02595 -55.86887 23276 ft 424 kts 129°
2026-04-23 07:54 6.00761 -55.84621 22762 ft 419 kts 129°
2026-04-23 07:54 5.98925 -55.82354 22193 ft 416 kts 129°
2026-04-23 07:54 5.97103 -55.80105 21650 ft 414 kts 129°
2026-04-23 07:54 5.95289 -55.77865 21102 ft 412 kts 129°
2026-04-23 07:55 5.93486 -55.75639 20546 ft 408 kts 129°
2026-04-23 07:55 5.91697 -55.73430 20013 ft 406 kts 129°
2026-04-23 07:55 5.89939 -55.71263 19481 ft 404 kts 129°
2026-04-23 07:55 5.88166 -55.69078 18936 ft 401 kts 129°
2026-04-23 07:56 5.86356 -55.66954 18394 ft 398 kts 130°
2026-04-23 07:56 5.84546 -55.64844 17835 ft 395 kts 130°
2026-04-23 07:56 5.82788 -55.62787 17356 ft 389 kts 130°
2026-04-23 07:56 5.81031 -55.60732 16841 ft 385 kts 130°
2026-04-23 07:57 5.79276 -55.58673 16332 ft 385 kts 130°
2026-04-23 07:57 5.77532 -55.56629 15821 ft 384 kts 130°
2026-04-23 07:57 5.75825 -55.54625 15310 ft 380 kts 130°
2026-04-23 07:57 5.74100 -55.52604 14812 ft 378 kts 129°
2026-04-23 07:58 5.72401 -55.50608 14306 ft 370 kts 130°
2026-04-23 07:58 5.70762 -55.48686 13825 ft 363 kts 130°
2026-04-23 07:58 5.69128 -55.46769 13321 ft 354 kts 130°
2026-04-23 07:58 5.67560 -55.44927 12884 ft 346 kts 130°
2026-04-23 07:59 5.66009 -55.43109 12427 ft 338 kts 130°
2026-04-23 07:59 5.64483 -55.41321 11989 ft 331 kts 130°
2026-04-23 07:59 5.63014 -55.39599 11555 ft 325 kts 130°
2026-04-23 07:59 5.61553 -55.37883 11128 ft 320 kts 130°
2026-04-23 08:00 5.60127 -55.36184 10707 ft 315 kts 126°
2026-04-23 08:00 5.59236 -55.34217 10295 ft 307 kts 101°
2026-04-23 08:00 5.58960 -55.32141 9928 ft 302 kts 95°
2026-04-23 08:00 5.58758 -55.30040 9466 ft 299 kts 95°
2026-04-23 08:01 5.58535 -55.27981 9091 ft 293 kts 95°
2026-04-23 08:01 5.58308 -55.25957 8696 ft 289 kts 96°
2026-04-23 08:01 5.58081 -55.23965 8316 ft 285 kts 96°
2026-04-23 08:01 5.57856 -55.22022 7936 ft 282 kts 96°
2026-04-23 08:02 5.57627 -55.20067 7569 ft 279 kts 96°
2026-04-23 08:02 5.57400 -55.18142 7201 ft 277 kts 96°
2026-04-23 08:02 5.57173 -55.16224 6837 ft 275 kts 96°
2026-04-23 08:02 5.56945 -55.14323 6474 ft 273 kts 97°
2026-04-23 08:03 5.56719 -55.12452 6115 ft 271 kts 97°
2026-04-23 08:03 5.56492 -55.10573 5743 ft 269 kts 97°
2026-04-23 08:03 5.56270 -55.08741 5407 ft 267 kts 97°
2026-04-23 08:03 5.56044 -55.06894 5054 ft 266 kts 97°
2026-04-23 08:04 5.55819 -55.05047 4703 ft 265 kts 97°
2026-04-23 08:04 5.55593 -55.03217 4348 ft 264 kts 97°
2026-04-23 08:04 5.55371 -55.01424 4002 ft 262 kts 97°
2026-04-23 08:04 5.54933 -54.99629 3577 ft 261 kts 117°
2026-04-23 08:05 5.53712 -54.98372 3284 ft 259 kts 150°
2026-04-23 08:05 5.51931 -54.98018 2964 ft 262 kts 184°
2026-04-23 08:05 5.50185 -54.98492 2672 ft 267 kts 200°
2026-04-23 08:05 5.48475 -54.99270 2293 ft 270 kts 202°
2026-04-23 08:06 5.46792 -55.00040 2123 ft 261 kts 205°
2026-04-23 08:06 5.45465 -55.01241 1668 ft 255 kts 241°
2026-04-23 08:06 5.45095 -55.02855 1698 ft 231 kts 269°
2026-04-23 08:06 5.45171 -55.04377 1765 ft 203 kts 274°
2026-04-23 08:07 5.45230 -55.05699 1793 ft 177 kts 271°
2026-04-23 08:07 5.45266 -55.06888 1782 ft 168 kts 271°
2026-04-23 08:07 5.45288 -55.08051 1759 ft 166 kts 271°
2026-04-23 08:07 5.45303 -55.09189 1602 ft 166 kts 270°
2026-04-23 08:08 5.45309 -55.10345 1372 ft 165 kts 270°
2026-04-23 08:08 5.45323 -55.11481 1114 ft 159 kts 272°
2026-04-23 08:08 5.45346 -55.12569 887 ft 151 kts 272°
2026-04-23 08:08 5.45313 -55.13596 689 ft 144 kts 267°
2026-04-23 08:09 5.45262 -55.14558 527 ft 137 kts 271°
2026-04-23 08:09 5.45278 -55.15500 363 ft 134 kts 273°
2026-04-23 08:09 5.45279 -55.16436 248 ft 134 kts 273°
2026-04-23 08:09 5.45279 -55.17383 103 ft 136 kts 272°
2026-04-23 08:10 5.45284 -55.18267 54 ft 117 kts 270°
2026-04-23 08:10 5.45278 -55.18985 55 ft 88 kts 269°
2026-04-23 08:10 5.45336 -55.19708 54 ft 21 kts 325°
2026-04-23 08:11 5.45440 -55.19773 54 ft 17 kts 289°
2026-04-23 08:11 5.45445 -55.19899 55 ft 17 kts 270°
2026-04-23 08:11 5.45445 -55.19997 55 ft 12 kts 269°
2026-04-23 08:11 5.45460 -55.20036 55 ft 4 kts 333°
2026-04-23 08:12 5.45491 -55.20039 49 ft 6 kts 359°
2026-04-23 08:12 5.45511 -55.20039 53 ft 1 kts 360°
2026-04-23 08:12 5.45512 -55.20039 55 ft 0 kts 360°